St. Augustine, FL

3:39 PM EDT on March 27, 2017 (GMT -0400)
Saint Augustine

Weather History for KSGJ - November, 2012

Change the Weather History Date:

Thursday, November 1, 2012

  Actual Average Record
Temperature  
Mean Temperature 64 °F -  
Max Temperature 73 °F 74 °F 89 °F (2015)
Min Temperature 55 °F 58 °F 35 °F (1993)
Degree Days  
Heating Degree Days 1    
Growing Degree Days 14 (Base 50)    
Moisture  
Dew Point 50 °F    
Average Humidity 69    
Maximum Humidity 93    
Minimum Humidity 38    
Precipitation  
Precipitation 0.00 in - - ()
Sea Level Pressure  
Sea Level Pressure 29.98 in    
Wind  
Wind Speed 7 mph (WSW)    
Max Wind Speed 13 mph    
Max Gust Speed 16 mph    
Visibility 10 miles    
Events      
Averages and records for this station are not official NWS values.
T = Trace of Precipitation, MM = Missing Value Source: NWS Daily Summary

Daily Weather History Graph

Daily Weather History Graph

Search for Another Location

Airport or City:

Trip Planner

Search our weather history database for the weather conditions in past years. The results will help you decide how hot, cold, wet, or windy it might be!

Date:

Astronomy

Nov. 01, 2012 Rise Set
Actual Time 7:39 AM EDT 6:37 PM EDT
Civil Twilight 7:14 AM EDT 7:02 PM EDT
Nautical Twilight 6:46 AM EDT 7:30 PM EDT
Astronomical Twilight 6:18 AM EDT 7:58 PM EDT
Moon 8:42 PM EDT (11/1) 10:02 AM EDT (11/1)
Length of Visible Light 11h 47m
Length of Day
10h 58m
Waning Gibbous, 93% of the Moon is Illuminated
Nov 1
Waning Gibbous
Nov 6
Last Quarter
Nov 13
New
Nov 20
First Quarter
Nov 28
Full

Hourly Weather History & Observations

Time (EDT) Temp. Dew Point Humidity Pressure Visibility Wind Dir Wind Speed Gust Speed Precip Events Conditions
12:58 AM 57.0 °F 50.0 °F 77% 29.99 in 10.0 mi WSW 6.9 mph - N/A   Clear
1:58 AM 55.9 °F 50.0 °F 80% 29.99 in 10.0 mi WSW 5.8 mph - N/A   Clear
2:58 AM 55.0 °F 51.1 °F 86% 29.98 in 10.0 mi SW 5.8 mph - N/A   Clear
3:58 AM 55.9 °F 52.0 °F 87% 29.98 in 10.0 mi WSW 6.9 mph - N/A   Clear
4:58 AM 55.9 °F 52.0 °F 87% 29.97 in 10.0 mi SW 5.8 mph - N/A   Clear
5:58 AM 55.0 °F 53.1 °F 93% 29.97 in 10.0 mi WSW 5.8 mph - N/A   Clear
6:58 AM 55.0 °F 53.1 °F 93% 29.99 in 10.0 mi WSW 5.8 mph - N/A   Clear
7:58 AM 55.0 °F 53.1 °F 93% 30.00 in 10.0 mi SW 5.8 mph - N/A   Clear
8:58 AM 57.9 °F 55.0 °F 90% 30.01 in 10.0 mi WSW 6.9 mph - N/A   Clear
9:58 AM 63.0 °F 54.0 °F 72% 30.01 in 10.0 mi West 5.8 mph - N/A   Clear
10:58 AM 64.0 °F 51.1 °F 63% 30.02 in 10.0 mi West 4.6 mph - N/A   Overcast
11:58 AM 64.9 °F 52.0 °F 63% 30.01 in 10.0 mi WSW 5.8 mph - N/A   Mostly Cloudy
12:58 PM 68.0 °F 51.1 °F 55% 29.99 in 10.0 mi WSW 8.1 mph - N/A   Partly Cloudy
1:58 PM 72.0 °F 54.0 °F 53% 29.95 in 10.0 mi West 12.7 mph 16.1 mph N/A   Scattered Clouds
2:58 PM 72.0 °F 53.1 °F 51% 29.93 in 10.0 mi SW 8.1 mph - N/A   Mostly Cloudy
3:58 PM 73.0 °F 51.1 °F 46% 29.92 in 10.0 mi West 12.7 mph - N/A   Scattered Clouds
4:58 PM 73.0 °F 48.0 °F 41% 29.92 in 10.0 mi WNW 11.5 mph - N/A   Clear
5:58 PM 71.1 °F 44.1 °F 38% 29.93 in 10.0 mi West 5.8 mph - N/A   Clear
6:58 PM 64.9 °F 46.9 °F 52% 29.95 in 10.0 mi WSW 4.6 mph - N/A   Clear
7:58 PM 62.1 °F 48.0 °F 60% 29.97 in 10.0 mi West 3.5 mph - N/A   Clear
8:58 PM 60.1 °F 48.0 °F 64% 29.99 in 10.0 mi West 5.8 mph - N/A   Clear
9:58 PM 57.0 °F 46.9 °F 69% 30.00 in 10.0 mi West 5.8 mph - N/A   Clear
10:58 PM 57.0 °F 46.9 °F 69% 30.02 in 10.0 mi West 3.5 mph - N/A   Clear
11:58 PM 55.9 °F 46.0 °F 69% 30.02 in 10.0 mi West 4.6 mph - N/A   Clear